User: anonymous
Location: Unspecified
(0.0000°N, 0.0000°E)
Time: 17:12:29
(UTC+00:00)
Language:

Snapshot - Orbit

View from above orbital plane
View from above orbital plane
View from above satellite
View from above satellite

Ground track
Ground track

The orbit data is extracted from the following two-line orbital elements,

1 01314U 65027A   14206.13686252 -.00000198  00000-0 -76601-3 0  6557
2 01314 090.2900 255.7514 0032169 098.7578 313.6966 12.91736146 70466
Epoch (UTC): 25 July 2014 03:17:04
Eccentricity: 0.0032169
inclination: 90.2900°
perigee height: 1270 km
apogee height: 1319 km
right ascension of ascending node: 255.7514°
argument of perigee: 98.7578°
revolutions per day: 12.91736146
mean anomaly at epoch: 313.6966°
orbit number at epoch: 7046

The dashed part of the orbit path shows where the satellite is in the earth's shadow,  

DLR